DW2806 Weather Reports


Display with metric or nautical units.
time (UTC)temp
F
wind
direction
speed
MPH
gust
MPH
rain 1hr
in
rain 24hr
in
rain mn
in
humidity
%
barometer
mb
20260831010056 73 137 0.0 0.0 0.00 0.00 0.00 77 1025.7
20260831004553 73 137 0.0 0.0 0.00 0.00 0.00 76 1025.7
20260831003103 73 137 0.0 0.0 0.00 0.00 0.00 76 1025.7
20260831001552 73 137 0.0 0.0 0.00 0.00 0.00 74 1025.7
20260831000052 73 137 0.0 0.0 0.00 0.00 0.00 74 1025.7
20260830234554 74 137 0.0 0.0 0.00 0.00 0.00 71 1025.7
20260830233053 74 137 0.0 0.0 0.00 0.00 0.00 70 1025.7
20260830231550 75 137 0.0 0.0 0.00 0.00 0.00 70 1025.7
20260830230051 75 137 0.0 0.0 0.00 0.00 0.00 69 1025.7
20260830224549 75 137 0.0 0.0 0.00 0.00 0.00 70 1025.7
20260830223107 76 137 0.0 0.0 0.00 0.00 0.00 70 1025.7
20260830221550 76 137 0.0 0.0 0.00 0.00 0.00 70 1025.7
20260830220047 77 137 0.0 0.0 0.00 0.00 0.00 68 1025.7
20260830214553 77 137 0.0 0.0 0.00 0.00 0.00 67 1025.7
20260830213046 77 137 0.0 0.0 0.00 0.00 0.00 66 1025.7
20260830211546 78 137 0.0 0.0 0.00 0.00 0.00 67 1025.7
20260830210046 78 137 0.0 0.0 0.00 0.00 0.00 64 1025.7
20260830204554 78 137 0.0 0.0 0.00 0.00 0.00 64 1025.7
20260830203047 78 137 0.0 0.0 0.00 0.00 0.00 65 1025.7
20260830201545 78 137 0.0 0.0 0.00 0.00 0.00 63 1025.7
20260830200047 79 137 0.0 0.0 0.00 0.00 0.00 62 1025.7
20260830194543 79 150 0.0 1.0 0.00 0.00 0.00 61 1025.7
20260830193043 80 88 0.0 0.0 0.00 0.00 0.00 60 1025.7
20260830191541 81 88 0.0 1.0 0.00 0.00 0.00 60 1025.7
20260830190052 82 204 0.0 5.0 0.00 0.00 0.00 57 1025.7
20260830184539 81 277 0.0 0.0 0.00 0.00 0.00 61 1025.7
20260830183046 81 277 0.0 2.0 0.00 0.00 0.00 59 1025.7
20260830181537 80 276 0.0 1.0 0.00 0.00 0.00 62 1025.7
20260830180037 80 275 0.0 0.0 0.00 0.00 0.00 61 1025.7
20260830174543 80 275 0.0 0.0 0.00 0.00 0.00 62 1025.7
20260830173036 80 275 0.0 1.0 0.00 0.00 0.00 64 1025.7
20260830171533 80 24 0.0 0.0 0.00 0.00 0.00 61 1025.7
20260830170033 81 24 0.0 0.0 0.00 0.00 0.00 57 1025.7
20260830164530 82 343 0.0 5.0 0.00 0.00 0.00 57 1025.7
20260830163034 81 159 0.0 0.0 0.00 0.00 0.00 62 1025.7
20260830161527 82 59 0.0 0.0 0.00 0.00 0.00 61 1025.7
20260830160035 83 70 0.0 0.0 0.00 0.00 0.00 62 1025.7
20260830154521 81 146 0.0 0.0 0.00 0.00 0.00 63 1025.7
20260830153018 78 142 0.0 0.0 0.00 0.00 0.00 68 1025.7
20260830151516 78 142 0.0 0.0 0.00 0.00 0.00 67 1025.7
20260830150015 79 142 0.0 0.0 0.00 0.00 0.00 65 1025.7
20260830144512 78 142 0.0 0.0 0.00 0.00 0.00 64 1025.7
20260830143009 78 144 0.0 0.0 0.00 0.00 0.00 70 1025.7
20260830141506 76 144 0.0 0.0 0.00 0.00 0.00 71 1025.7
20260830140001 73 144 0.0 0.0 0.00 0.00 0.00 75 1025.7
20260830134559 72 144 0.0 0.0 0.00 0.00 0.00 79 1025.7
20260830133054 69 144 0.0 0.0 0.00 0.00 0.00 82 1025.7
20260830131548 67 144 0.0 0.0 0.00 0.00 0.00 83 1025.7
20260830130046 66 144 0.0 0.0 0.00 0.00 0.00 84 1025.7
20260830124540 65 144 0.0 0.0 0.00 0.00 0.00 85 1025.7
20260830123038 63 144 0.0 0.0 0.00 0.00 0.00 86 1025.7
20260830121539 63 144 0.0 0.0 0.00 0.00 0.00 86 1025.7
20260830120033 62 144 0.0 0.0 0.00 0.00 0.00 87 1025.7
20260830114530 62 144 0.0 0.0 0.00 0.00 0.00 86 1025.7
20260830113029 61 144 0.0 0.0 0.00 0.00 0.00 89 1025.7
20260830111526 60 144 0.0 0.0 0.00 0.00 0.00 88 1025.7
20260830110022 60 144 0.0 0.0 0.00 0.00 0.00 87 1025.7
20260830104547 60 144 0.0 0.0 0.00 0.00 0.00 88 1025.7
20260830103018 59 144 0.0 0.0 0.00 0.00 0.00 88 1025.7
20260830101517 59 144 0.0 0.0 0.00 0.00 0.00 88 1025.7
20260830100016 59 144 0.0 0.0 0.00 0.00 0.00 88 1025.7
20260830094515 59 144 0.0 0.0 0.00 0.00 0.00 88 1025.7
20260830093025 59 144 0.0 0.0 0.00 0.00 0.00 88 1025.7
20260830091514 59 144 0.0 0.0 0.00 0.00 0.00 89 1025.7
20260830090017 59 144 0.0 0.0 0.00 0.00 0.00 89 1025.7
20260830084513 59 144 0.0 0.0 0.00 0.00 0.00 89 1025.7
20260830083028 58 144 0.0 0.0 0.00 0.00 0.00 90 1025.7
20260830081511 58 144 0.0 0.0 0.00 0.00 0.00 89 1025.7
20260830080011 58 144 0.0 0.0 0.00 0.00 0.00 90 1025.7
20260830074510 58 144 0.0 0.0 0.00 0.00 0.00 90 1025.7
20260830073009 58 144 0.0 0.0 0.00 0.00 0.00 90 1025.7
20260830071509 58 144 0.0 0.0 0.00 0.00 0.00 90 1025.7
20260830070008 58 144 0.0 0.0 0.00 0.00 0.00 90 1025.7
20260830064509 58 144 0.0 0.0 0.00 0.00 0.00 90 1025.7
20260830063009 58 144 0.0 0.0 0.00 0.00 0.00 90 1025.7
20260830061505 58 144 0.0 0.0 0.00 0.00 0.00 91 1025.7
20260830060008 58 144 0.0 0.0 0.00 0.00 0.00 91 1025.7
20260830054504 58 144 0.0 0.0 0.00 0.00 0.00 92 1025.7
20260830053005 58 144 0.0 0.0 0.00 0.00 0.00 92 1025.7
20260830051503 58 144 0.0 0.0 0.00 0.00 0.00 92 1025.7
20260830050001 58 144 0.0 0.0 0.00 0.00 0.00 92 1025.7
20260830044600 58 144 0.0 0.0 0.00 0.00 0.00 92 1025.7
20260830043058 59 144 0.0 0.0 0.00 0.00 0.00 92 1025.7
20260830041604 59 144 0.0 0.0 0.00 0.00 0.00 92 1025.7
20260830040053 60 144 0.0 0.0 0.00 0.00 0.00 92 1025.7
20260830034604 60 144 0.0 0.0 0.00 0.00 0.00 92 1025.7
20260830033050 60 144 0.0 0.0 0.00 0.00 0.00 92 1025.7
20260830031550 60 144 0.0 0.0 0.00 0.00 0.00 92 1025.7
20260830030050 60 144 0.0 0.0 0.00 0.00 0.00 92 1025.7
20260830024548 60 144 0.0 0.0 0.00 0.00 0.00 91 1025.7
20260830023047 61 144 0.0 0.0 0.00 0.00 0.00 91 1025.7
20260830021545 61 144 0.0 0.0 0.00 0.00 0.00 91 1025.7
20260830020044 61 144 0.0 0.0 0.00 0.00 0.00 90 1025.7
20260830014554 61 144 0.0 0.0 0.00 0.00 0.00 90 1025.7
20260830013053 62 144 0.0 0.0 0.00 0.00 0.00 89 1025.7
20260830011547 62 144 0.0 0.0 0.00 0.00 0.00 89 1025.7